Hauptseite
METAR-TAF:

METAR-TAF

Flughäfen :

Hohenfels, Deutschland

Breite: 49-13N, Länge: 011-50E, Höhe: 442 m

Beobachtung

Neuester Wetterbericht von vor 1 Stunde und 1 Minuten, um 04:56 UTC
Windstille
Temperatur -1°C
Luftfeuchtigkeit 86%
Luftdruck 1015 hPa
Sichtweite 10 km oder mehr
Geschlossene Wolkendecke in der Höhe von 3300 ft

METAR: ETIH 190456Z AUTO 00000KT 9999 OVC033 M01/M03 A2998 RMK AO2 SLP176 T10141031 $

Zeit: 06:57 (05:57 UTC)


TAF: fehlend

Wetterbeobachtungen und Prognosen von mehr als 4000 Flughäfen (METAR und TAF Bericht).

Die verfügbaren Stationen werden durch gelbe und rote Markierungen auf der Karte dargestellt.

Führen Sie die Maus auf sie, um den Namen der Station zu sehen.

Darauf klicken, um die Beobachtung von Wetterbeobachtungen und Prognosen zu sehen.

Um die Karte zu ändern : klicken Sie auf den grünen Tasten mit einem schwarzen Kreuz Zum Vergrößern, auf den grünen Button mit einem Gedankenstrich zu verkleinern, oder auf die grünen Pfeile für benachbarte Karten.


METAR-TAF: